ORBCOMM FM110 [+]

Last updated on July 6, 2021, 3:36 p.m. UTC

1 41182U 15081D   21186.85497369 -.00000046  00000-0  27659-4 0  9994
2 41182  47.0007 234.9280 0000480 330.2000  29.8856 14.54894562294151
UTC
Height (km)
Latitude
Longitude
Inclination
Orbital Period
UTC large
Height (km)
Speed (km/s)
/
Latitude / Longitude
Inclination (degrees)
Orbital Period (minutes)
Azimuth
Elevation
Range (km)
Doppler Factor
iOS Compass Heading
iOS Angle